Regional Weather Roundup
Issued by NWS Wakefield, VA

Home | Current Version | Previous Version | Graphics & Text | Print | Product List | Glossary On
Versions: 1 2 3 4 5 6 7 8 9 10 11 12 13 14 15 16 17 18 19 20 21 22 23 24 25 26 27 28 29 30 31 32 33 34 35 36 37 38 39 40 41 42 43 44 45 46 47 48 49 50
000
ASUS41 KAKQ 211310
RWRAKQ

REGIONAL WEATHER ROUNDUP
NATIONAL WEATHER SERVICE WAKEFIELD VA
800 AM EST SUN DEC 21 2014

Note: "fair" indicates few or no clouds below 12,000 feet with no
significant weather and/or obstructions to visibility. * = Denotes
station may not report precipitation (e.g., rain,snow,etc.),
thunder or fog.

VAZ042-051-052>054-056-211400-
NORTHERN VIRGINIA

CITY           SKY/WX    TMP DP  RH WIND       PRES   REMARKS
WASH NATIONAL  CLOUDY    37  24  59 E6        30.35R
DULLES         CLOUDY    32  24  72 NE5       30.34R
FORT BELVOIR   NOT AVBL
QUANTICO       CLOUDY    34  26  72 NW5       30.36R
FREDERICKSBRG* CLOUDY    34  30  85 CALM      30.33F
STAFFORD*      CLOUDY    32  32 100 CALM      30.38S
WARRENTON      CLOUDY    33  32  96 CALM      30.33S
CULPEPER*      CLOUDY    34  30  86 CALM      30.34R
MANASSAS*      CLOUDY    34  30  86 N3        30.34R
LEESBURG*      CLOUDY    32  28  86 N3        30.34S
WINCHESTER     CLOUDY    32  23  69 CALM      30.31S
FRONT ROYAL*   CLOUDY    32  27  80 CALM      30.31R
LURAY*         CLOUDY    32  28  86 CALM      30.30R
$$

VAZ048-049-060>072-079>083-211400-
CENTRAL AND SOUTH CENTRAL VIRGINIA

CITY           SKY/WX    TMP DP  RH WIND       PRES   REMARKS
RICHMOND       CLOUDY    36  24  62 CALM      30.33R
CHESTERFIELD*  CLOUDY    36  18  48 CALM      30.33S
PETERSBURG*    CLOUDY    37  31  82 CALM      30.33S
HANOVER        CLOUDY    34  26  72 CALM      30.34S
TAPPAHANNOCK*  CLOUDY    34  27  77 CALM      30.34S
QUINTON*       CLOUDY    34  27  76 CALM      30.33S
CHARLOTTSVILLE CLOUDY    32  26  78 CALM      30.31R
GORDONSVILLE*  CLOUDY    32  27  83 CALM      30.32R
ORANGE*        CLOUDY    32  30  93 CALM      30.34R
LOUISA*        CLOUDY    34  28  80 CALM      30.30R
BUMPASS*       CLOUDY    32  26  77 CALM      30.32R
FARMVILLE*     CLOUDY    36  29  78 CALM      30.30S
CREWE*         CLOUDY    33  30  90 CALM      30.31R
FORT PICKETT*  CLOUDY    34  29  81 CALM      30.31S
CHASE CITY*    CLOUDY    37  35  91 CALM      30.30S
CLARKSVILLE*   CLOUDY    36  32  87 CALM      30.30R
SOUTH HILL*    CLOUDY    33  29  86 CALM      30.37R
LAWRENCEVILLE* CLOUDY    34  30  86 CALM      30.31S
EMPORIA*       CLOUDY    32  32 100 CALM      30.34S
$$

VAZ088>098-211400-
SOUTHEAST VIRGINIA

CITY           SKY/WX    TMP DP  RH WIND       PRES   REMARKS
NORFOLK        CLOUDY    38  30  73 NE8       30.32R
VIRGINIA BEACH MOCLDY    37  31  78 N3        30.32R
NORFOLK NAVAL  CLOUDY    41  30  65 NE8       30.34R
WEST POINT*    CLOUDY    37  29  74 CALM      30.35S
SALUDA*        CLOUDY    35  28  75 N6        30.33S
NEWPORT NEWS   CLOUDY    38  29  70 N3        30.33R
LANGLEY AFB    CLOUDY    35  31  84 N3        30.33S
FORT EUSTIS    CLOUDY    36  26  65 NE1       30.31S
WILLIAMSBURG*  CLOUDY    37  30  75 CALM      30.34S
HR EXEC AP*    CLOUDY    32  30  93 CALM      30.34S
FRANKLIN*      CLOUDY    34  30  86 CALM      30.33R
WAKEFIELD      CLOUDY    35  30  82 CALM      30.34R
$$

VAZ020-022-025-037-045-211400-
WEST CENTRAL AND SOUTHWEST VIRGINIA

CITY           SKY/WX    TMP DP  RH WIND       PRES   REMARKS
STAUNTON*      CLOUDY    32  27  83 CALM      30.30R
WAYNESBORO*    CLOUDY    30  25  82 CALM      30.27S
HOT SPRINGS VA CLOUDY    28  28 100 W10G16    30.14S WCI  19
LYNCHBURG      CLOUDY    34  29  82 CALM      30.29S
DANVILLE       CLOUDY    37  33  85 CALM      30.30R
SOUTH BOSTON*  CLOUDY    36  33  90 CALM      30.31R
MARTINSVILLE   CLOUDY    37  35  96 CALM      30.30S
ROANOKE        CLOUDY    35  28  75 CALM      30.29R
BLACKSBURG     CLOUDY    33  30  89 CALM      30.26R
DUBLIN*        CLOUDY    36  35  99 CALM      30.25R
MARION*        CLOUDY    37  33  87 CALM      30.23S
HILLSVILLE*    CLOUDY    34  32  92 CALM      30.21S
RICHLANDS*     SUNNY     31  28  88 N3        30.21R
WISE*          CLEAR     30  30 100 E3        30.22R
ABINGDON*      CLOUDY    37  37  99 CALM      30.23R FOG
$$

MDZ021>025-VAZ099-100-211400-
SOUTHERN MARYLAND AND THE DELMARVA PENINSULA

CITY           SKY/WX    TMP DP  RH WIND       PRES   REMARKS
PATUXENT RIVER CLOUDY    35  26  69 NW3       30.34R
BAY BRIDGE APT   N/A     34  27  75 CALM      30.34S
LEONARDTOWN    CLOUDY    32  27  80 CALM      30.35S
DOVER          CLOUDY    32  27  82 NW2       30.31S
GEORGETOWN     CLOUDY    31  26  82 CALM      30.34S
EASTON         CLOUDY    32  32 100 CALM      30.37
CAMBRIDGE      CLOUDY    32  32 100 CALM      30.33S
SALISBURY      CLOUDY    33  28  81 CALM      30.33S HAZE
OCEAN CITY     CLOUDY    32  27  81 NW3       30.34R
WALLOPS ISLAND CLOUDY    33  27  78 N5        30.34R
ACCOMACK*      CLOUDY    34  28  80 NE3       30.33S
$$

NCZ012>017-030>032-211400-
NORTH CENTRAL AND EASTERN NORTH CAROLINA

CITY           SKY/WX    TMP DP  RH WIND       PRES   REMARKS
ROANOKE RAPIDS CLOUDY    32  32 100 CALM      30.32S FOG
RALEIGH        CLOUDY    38  33  82 CALM      30.31R FOG
ELIZABETH CITY PTCLDY    39  31  72 N8        30.32R
AHOSKIE*       MOCLDY    32  30  94 CALM      30.33R FOG
EDENTON*         N/A     32  31  94 CALM      30.32R
CURRITUCK*     CLOUDY    37  32  83 N7        30.32R
KILL DEVIL HLS CLEAR     41  33  72 N6        30.29R
MANTEO         CLEAR     40  34  77 NE10      30.30R
CAPE HATTERAS  CLEAR     43  38  82 NE9       30.28R
TARBORO*       PTSUNNY   30  28  93 CALM      30.33R FOG
GOLDSBORO      CLOUDY    33  32  98 N1        30.30
WASHINGTON     CLEAR     32  30  92 NE3       30.31R FOG
GREENVILLE       N/A     30  30 100 CALM      30.32R FOG
NEW BERN       MOCLDY    37  32  82 N7        30.31R
WILMINGTON     CLOUDY    38  34  85 N10       30.28R
$$

VAZ048-211400-
ELSEWHERE

CITY           SKY/WX    TMP DP  RH WIND       PRES   REMARKS
HARRISBURG PA  MOCLDY    26  21  81 NW6       30.33R
BALTIMORE      MOCLDY    33  24  69 CALM      30.33S
ANNAPOLIS      CLOUDY    35  24  64 N5        30.34S
ANDREWS AFB    CLOUDY    31  26  81 N3        30.33R
PHILADELPHIA   MOCLDY    32  21  64 NW5       30.34R
HENDERSON NC   CLOUDY    34  33  95 CALM      30.30R FOG
GREENSBORO     CLOUDY    39  35  86 CALM      30.27R FOG
ROCKY MOUNT    PTCLDY    31  29  92 NE3       30.32R FOG
$$

VAZ100-211400-
MARINE

STATION/POSITION TIME  TEMP    WIND        PRES    WAVE   SWELL
                       AIR SEA DIR/SP/G            HT/PER HT/PER
                 (UTC) (F)     (DEG/KT/KT) (MB)    (FT/S) (FT/S)
CAPE MAY NJ      1300   33 42   70/  2/  4 1026.7F
LEWES DE         1300   35 42  290/  4/  5 1027.0F
15NM E FENWICK I 1300   36 45              1026.7R   1/10
OCEAN-CITY-INLET 1300   34 44  340/  5/  6 1026.8S
WACHAPREAGUE VA  1300   34 40  330/  3/  5 1027.0R
THOMAS POINT MD  1300   35 40   10/  7/  8 1028.3S
GOOSES REEF MD   1300   36     VRB  4/  6  1026.4R   0
COVE POINT MD    1300   35      60/  3/  4 1027.1S
SOLOMONS ISLAND  1300      42                N/A
BISHOPS HEAD MD  1300   35 36   10/  3/  4 1026.7S
POTOMAC MD       1300   36 43  360/  6/  6 1026.4S   0
CAMBRIDGE MD     1300   34 40   CALM  /  1 1027.1F
LEWISETTA VA     1300   36 41   10/  4/  6 1027.1F
RAPPAHANNOCK LGT 1300           30/  9/ 11 1027.2F
STINGRAY PT      1300   38 44   10/  8/ 12 1027.2F   1
YORK RVR RNG VA  1300   38      10/  8/  9 1026.3S
YORKTOWN VA      1300   37 45   10/  7/  8 1026.7S
JAMESTOWN VA     1300   35 44   70/  4/  6   N/A     0
DOMINION TERM VA 1300   37      40/  1/  3 1026.8R
KIPTOPEKE VA     1300      48   30/  2/  4   N/A
CHES BAY BRIDGE  1300   38 46   10/  8/ 11 1026.4R
CAPE HENRY VA    1300   38      20/ 10/ 11 1025.3R
CHESAPEAKE LGHT  1200   39      20/ 12/ 13 1026.8R
WILLOUBY STN VA  1300   38      30/  8/  9 1027.1R
S CRANEY ISL VA  1300           30/  6/  8 1026.7R
CAPE HENRY BUOY  1300      49                N/A     2/ 3
1ST LANDING BUOY 1300   39 45   20/ 10/ 12 1026.3R   1/ 3
CAPE CHARLES BUO 1300      47                N/A     2/11   2/11
64NM E OF VA BCH 1300   44 54   10/ 12/ 16 1025.4R   2/10   2/10
DUCK PIER NC     1300   42 45   20/ 12/ 14 1025.3R
44100 DUCK FRF   1300      52                N/A     3/ 4
44056 DUCK FRF   1300      46                N/A     2/ 4
OREGON INLET NC  1300   43 48   10/ 10/ 14 1025.8R
HATTERAS NC      1300   44 48   30/ 10/ 14 1025.5R
DIAMOND SHLS NC  1300   51                 1024.8R   4/ 5
CAPE LOOKOUT NC  1200   44      20/ 10/ 14 1024.4R
$$


USA.gov is the U.S. government's official web portal to all federal, state and local government web resources and services.